{"data":{"norad_id":52334,"epoch":"2026-09-19T23:21:21.138048Z","epoch_age_seconds":105167,"freshness":"FRESH","line1":"1 52334U 22045D   26262.97316132 -.00000277  00000+0  29036-5 0  9991","line2":"2 52334  53.1628  53.9939 0000800  82.6752 277.4342 15.33549237244999","mean_motion":15.33549237,"eccentricity":8.0e-5,"inclination_deg":53.1628,"raan_deg":53.9939,"arg_perigee_deg":82.6752,"mean_anomaly_deg":277.4342,"bstar":2.9036e-6,"rev_number":24499,"period_min":93.899821750555,"perigee_km":464.68558646565,"apogee_km":465.78052567462,"semimajor_km":6843.3700560701,"source":"CELESTRAK","updated_at":"2026-09-20T09:00:40.021532Z"}}